Location: Carnetin
(48.9010°N, 2.7059°E)
Time: 14:50:03
(UTC+00:00)

Cosmos 1544 Rocket - Pass Details

Date: 24 October 2021
Orbit: 603 x 632 km, 82.5° (Epoch: 27 November)

Event Time Altitude Azimuth Distance (km) Brightness Sun altitude
Rises 17:20:33 0° 165° (SSE) 2,913 7.0 -6.9°
Reaches altitude 10° 17:22:54 10° 157° (SSE) 2,010 6.1 -7.3°
Maximum altitude 17:26:58 36° 91° (E) 1,007 4.2 -8.0°
Drops below altitude 10° 17:31:04 10° 25° (NNE) 2,020 5.9 -8.7°
Sets 17:33:26 0° 17° (NNE) 2,930 6.8 -9.0°
